When you browse on this site, cookies collect data to enhance your experience and personalize the content and advertising you see.
Visit our Privacy Policy to learn more. By continuing to use the site, you agree to this use of cookies and data.

Hourly Weather Wakefield

Today, 13 August, Thursday

Time Temperature Precipitation Wind Pressure Humidity
00:00 +20°C° 0.4 mm 2 mps 755 mmHg 87%
01:00 +19°C° 0.1 mm 2 mps 754 mmHg 87%
02:00 +19°C° 0.1 mm 2 mps 754 mmHg 88%
03:00 +19°C° 0.1 mm 3 mps 754 mmHg 89%
04:00 +18°C° 0 mm 3 mps 754 mmHg 89%
05:00 +18°C° 0 mm 3 mps 754 mmHg 90%
06:00 +18°C° 0 mm 3 mps 754 mmHg 90%
07:00 +19°C° 0 mm 4 mps 754 mmHg 87%
08:00 +20°C° 0 mm 4 mps 754 mmHg 84%
09:00 +21°C° 0 mm 4 mps 755 mmHg 81%
10:00 +22°C° 0 mm 5 mps 755 mmHg 78%
11:00 +22°C° 0 mm 5 mps 755 mmHg 75%
12:00 +23°C° 0 mm 6 mps 755 mmHg 71%
13:00 +23°C° 0 mm 6 mps 755 mmHg 71%
14:00 +23°C° 0 mm 5 mps 754 mmHg 70%
15:00 +25°C° 0 mm 5 mps 754 mmHg 69%
16:00 +22°C° 0 mm 5 mps 754 mmHg 72%
17:00 +21°C° 0 mm 5 mps 754 mmHg 75%
18:00 +20°C° 0 mm 5 mps 754 mmHg 78%
19:00 +20°C° 0 mm 5 mps 754 mmHg 80%
20:00 +19°C° 0 mm 5 mps 755 mmHg 82%
21:00 +17°C° 0 mm 5 mps 755 mmHg 84%
22:00 +17°C° 0 mm 5 mps 755 mmHg 84%
23:00 +17°C° 0 mm 5 mps 755 mmHg 85%

Tomorrow, 14 August, Friday

Time Temperature Precipitation Wind Pressure Humidity
00:00 +17°C° 0 mm 5 mps 755 mmHg 85%
01:00 +17°C° 0 mm 5 mps 755 mmHg 85%
02:00 +17°C° 0 mm 5 mps 755 mmHg 85%
03:00 +18°C° 0 mm 4 mps 755 mmHg 85%
04:00 +18°C° 0 mm 4 mps 755 mmHg 85%
05:00 +18°C° 0 mm 4 mps 755 mmHg 85%
06:00 +17°C° 0 mm 4 mps 755 mmHg 85%
07:00 +18°C° 0 mm 4 mps 755 mmHg 83%
08:00 +19°C° 0 mm 4 mps 755 mmHg 81%
09:00 +19°C° 0 mm 4 mps 755 mmHg 78%
10:00 +20°C° 0 mm 4 mps 755 mmHg 74%
11:00 +22°C° 0 mm 4 mps 755 mmHg 70%
12:00 +23°C° 0 mm 5 mps 755 mmHg 66%
13:00 +23°C° 0 mm 5 mps 755 mmHg 64%
14:00 +25°C° 0 mm 4 mps 755 mmHg 63%
15:00 +25°C° 0 mm 4 mps 755 mmHg 62%
16:00 +23°C° 0 mm 4 mps 755 mmHg 66%
17:00 +22°C° 0 mm 4 mps 755 mmHg 69%
18:00 +21°C° 0 mm 4 mps 755 mmHg 73%
19:00 +20°C° 0 mm 4 mps 756 mmHg 77%
20:00 +18°C° 0 mm 3 mps 756 mmHg 82%
21:00 +17°C° 0 mm 3 mps 757 mmHg 87%
22:00 +17°C° 0 mm 3 mps 757 mmHg 86%
23:00 +17°C° 0 mm 2 mps 757 mmHg 85%

Day after tomorrow, 15 August, Saturday

Time Temperature Precipitation Wind Pressure Humidity
00:00 +17°C° 0 mm 2 mps 757 mmHg 85%
01:00 +17°C° 0 mm 2 mps 757 mmHg 84%
02:00 +16°C° 0 mm 2 mps 757 mmHg 84%
03:00 +16°C° 0 mm 2 mps 757 mmHg 84%
04:00 +16°C° 0 mm 2 mps 757 mmHg 83%
05:00 +16°C° 0 mm 2 mps 757 mmHg 83%
06:00 +16°C° 0 mm 2 mps 756 mmHg 82%
07:00 +17°C° 0 mm 2 mps 757 mmHg 79%
08:00 +18°C° 0 mm 2 mps 757 mmHg 75%
09:00 +18°C° 0 mm 2 mps 757 mmHg 72%
10:00 +20°C° 0 mm 2 mps 757 mmHg 66%
11:00 +21°C° 0 mm 3 mps 757 mmHg 60%
12:00 +22°C° 0 mm 3 mps 757 mmHg 54%
13:00 +24°C° 0 mm 3 mps 756 mmHg 54%
14:00 +24°C° 0 mm 3 mps 756 mmHg 54%
15:00 +24°C° 0 mm 3 mps 756 mmHg 53%
16:00 +22°C° 0 mm 3 mps 756 mmHg 59%
17:00 +20°C° 0 mm 3 mps 756 mmHg 64%
18:00 +19°C° 0 mm 3 mps 756 mmHg 70%
19:00 +18°C° 0 mm 3 mps 756 mmHg 74%
20:00 +17°C° 0 mm 3 mps 756 mmHg 77%
21:00 +16°C° 0 mm 2 mps 756 mmHg 81%
22:00 +16°C° 0 mm 3 mps 756 mmHg 82%
23:00 +16°C° 0 mm 3 mps 755 mmHg 83%

16 August, Sunday

Time Temperature Precipitation Wind Pressure Humidity
00:00 +16°C° 0 mm 3 mps 755 mmHg 84%
01:00 +16°C° 0.6 mm 3 mps 755 mmHg 85%
02:00 +16°C° 0.6 mm 3 mps 755 mmHg 86%
03:00 +16°C° 0.6 mm 3 mps 754 mmHg 87%
04:00 +16°C° 0.1 mm 3 mps 754 mmHg 86%
05:00 +16°C° 0.1 mm 3 mps 754 mmHg 86%
06:00 +16°C° 0.1 mm 3 mps 753 mmHg 86%
07:00 +16°C° 0 mm 3 mps 754 mmHg 85%
08:00 +16°C° 0 mm 3 mps 754 mmHg 84%
09:00 +16°C° 0 mm 3 mps 754 mmHg 83%
10:00 +17°C° 0 mm 3 mps 753 mmHg 81%
11:00 +18°C° 0 mm 3 mps 753 mmHg 80%
12:00 +18°C° 0 mm 3 mps 753 mmHg 79%
13:00 +19°C° 0 mm 3 mps 753 mmHg 78%
14:00 +19°C° 0 mm 3 mps 752 mmHg 76%
15:00 +20°C° 0 mm 3 mps 752 mmHg 75%
16:00 +19°C° 0 mm 3 mps 752 mmHg 78%
17:00 +19°C° 0 mm 3 mps 752 mmHg 80%
18:00 +19°C° 0 mm 3 mps 751 mmHg 82%
19:00 +18°C° 0 mm 2 mps 751 mmHg 84%
20:00 +18°C° 0 mm 2 mps 751 mmHg 87%
21:00 +18°C° 0 mm 2 mps 751 mmHg 89%
22:00 +17°C° 0 mm 2 mps 751 mmHg 89%
23:00 +17°C° 0 mm 2 mps 751 mmHg 90%

17 August, Monday

Time Temperature Precipitation Wind Pressure Humidity
00:00 +17°C° 0 mm 2 mps 751 mmHg 91%
01:00 +17°C° 0 mm 2 mps 750 mmHg 91%
02:00 +17°C° 0 mm 2 mps 750 mmHg 91%
03:00 +17°C° 0 mm 2 mps 750 mmHg 91%
04:00 +17°C° 0 mm 2 mps 750 mmHg 91%
05:00 +17°C° 0 mm 2 mps 750 mmHg 91%
06:00 +17°C° 0 mm 2 mps 749 mmHg 91%
07:00 +17°C° 0 mm 2 mps 749 mmHg 89%
08:00 +19°C° 0 mm 1 mps 749 mmHg 86%
09:00 +19°C° 0 mm 1 mps 749 mmHg 84%
10:00 +20°C° 0.1 mm 1 mps 749 mmHg 82%
11:00 +20°C° 0.1 mm 2 mps 749 mmHg 80%
12:00 +20°C° 0.1 mm 2 mps 749 mmHg 78%
13:00 +21°C° 0.2 mm 2 mps 749 mmHg 75%
14:00 +21°C° 0.2 mm 2 mps 749 mmHg 73%
15:00 +23°C° 0.2 mm 2 mps 749 mmHg 71%
16:00 +21°C° 1.2 mm 2 mps 749 mmHg 74%
17:00 +20°C° 1.2 mm 3 mps 749 mmHg 78%
18:00 +19°C° 1.2 mm 3 mps 749 mmHg 81%
19:00 +19°C° 1.2 mm 2 mps 749 mmHg 84%
20:00 +18°C° 1.2 mm 2 mps 749 mmHg 86%
21:00 +17°C° 1.2 mm 2 mps 750 mmHg 89%
22:00 +17°C° 0.3 mm 2 mps 750 mmHg 89%
23:00 +17°C° 0.3 mm 2 mps 750 mmHg 89%

18 August, Tuesday

Time Temperature Precipitation Wind Pressure Humidity
00:00 +17°C° 0.3 mm 2 mps 750 mmHg 89%
01:00 +17°C° 0 mm 2 mps 750 mmHg 89%
02:00 +16°C° 0 mm 2 mps 750 mmHg 88%
03:00 +16°C° 0 mm 2 mps 750 mmHg 88%
04:00 +16°C° 0 mm 2 mps 750 mmHg 88%
05:00 +16°C° 0 mm 2 mps 750 mmHg 88%
06:00 +16°C° 0 mm 2 mps 750 mmHg 87%
07:00 +17°C° 0 mm 2 mps 750 mmHg 82%
08:00 +18°C° 0 mm 2 mps 750 mmHg 76%
09:00 +20°C° 0 mm 2 mps 750 mmHg 70%
10:00 +20°C° 0 mm 2 mps 750 mmHg 67%
11:00 +21°C° 0 mm 3 mps 750 mmHg 64%
12:00 +22°C° 0 mm 3 mps 750 mmHg 61%
13:00 +22°C° 0.1 mm 3 mps 750 mmHg 61%
14:00 +22°C° 0.1 mm 4 mps 750 mmHg 61%
15:00 +23°C° 0.1 mm 4 mps 750 mmHg 61%
16:00 +22°C° 0 mm 4 mps 750 mmHg 63%
17:00 +21°C° 0 mm 4 mps 750 mmHg 66%
18:00 +21°C° 0 mm 4 mps 750 mmHg 68%
19:00 +19°C° 0 mm 3 mps 750 mmHg 72%
20:00 +18°C° 0 mm 2 mps 750 mmHg 75%
21:00 +17°C° 0 mm 2 mps 750 mmHg 79%
22:00 +17°C° 0 mm 2 mps 750 mmHg 80%
23:00 +17°C° 0 mm 2 mps 750 mmHg 81%
Show more